TimeEST,TemperatureF,Dew PointF,Humidity,Sea Level PressureIn,VisibilityMPH,Wind Direction,Wind SpeedMPH,Gust SpeedMPH,PrecipitationIn,Events,Conditions,WindDirDegrees,DateUTC
12:29 AM,19.4,10.4,68,30.20,10.0,NNW,5.8,-,0.00,,Overcast,330,2012-11-30 05:29:00
12:52 AM,19.0,10.0,68,30.27,10.0,Variable,5.8,-,0.00,,Overcast,0,2012-11-30 05:52:00
1:52 AM,15.1,7.0,70,30.31,10.0,NW,8.1,-,0.00,,Mostly Cloudy,320,2012-11-30 06:52:00
2:04 AM,15.8,6.8,68,30.25,10.0,NW,8.1,-,N/A,,Scattered Clouds,320,2012-11-30 07:04:00
2:52 AM,12.9,3.9,67,30.34,10.0,NNW,8.1,-,N/A,,Clear,340,2012-11-30 07:52:00
4:52 AM,10.0,3.0,73,30.40,10.0,NNW,5.8,-,N/A,,Clear,330,2012-11-30 09:52:00
5:52 AM,5.0,1.0,84,30.43,10.0,North,4.6,-,N/A,,Clear,10,2012-11-30 10:52:00
6:52 AM,7.0,-0.0,73,30.47,10.0,NW,3.5,-,N/A,,Clear,320,2012-11-30 11:52:00
7:52 AM,5.0,-0.9,76,30.51,10.0,North,3.5,-,N/A,,Clear,360,2012-11-30 12:52:00
8:52 AM,9.0,-0.0,67,30.52,10.0,North,3.5,-,N/A,,Clear,10,2012-11-30 13:52:00
9:52 AM,12.0,-2.0,53,30.53,10.0,North,4.6,-,N/A,,Clear,10,2012-11-30 14:52:00
10:52 AM,14.0,-2.0,49,30.53,10.0,Calm,Calm,-,N/A,,Clear,0,2012-11-30 15:52:00
11:52 AM,15.1,-0.0,51,30.51,10.0,NNE,4.6,-,N/A,,Clear,20,2012-11-30 16:52:00
12:52 PM,17.1,-0.0,47,30.51,10.0,NW,3.5,-,N/A,,Clear,320,2012-11-30 17:52:00
1:52 PM,19.0,1.0,46,30.50,10.0,North,4.6,-,N/A,,Clear,360,2012-11-30 18:52:00
2:52 PM,19.0,1.0,46,30.52,10.0,Variable,3.5,-,N/A,,Clear,0,2012-11-30 19:52:00
3:52 PM,15.1,1.0,54,30.53,10.0,Calm,Calm,-,N/A,,Clear,0,2012-11-30 20:52:00
4:52 PM,9.0,1.9,73,30.56,10.0,Calm,Calm,-,N/A,,Clear,0,2012-11-30 21:52:00
5:52 PM,6.1,1.9,83,30.58,10.0,Calm,Calm,-,N/A,,Clear,0,2012-11-30 22:52:00
6:52 PM,3.9,1.0,88,30.60,10.0,Calm,Calm,-,N/A,,Clear,0,2012-11-30 23:52:00
7:52 PM,3.9,-0.0,84,30.61,10.0,Calm,Calm,-,N/A,,Clear,0,2012-12-01 00:52:00
8:52 PM,3.0,-0.0,87,30.61,10.0,Calm,Calm,-,N/A,,Clear,0,2012-12-01 01:52:00
9:52 PM,-0.0,-4.0,83,30.62,10.0,Calm,Calm,-,N/A,,Clear,0,2012-12-01 02:52:00
10:52 PM,-2.0,-6.0,83,30.63,10.0,Calm,Calm,-,N/A,,Clear,0,2012-12-01 03:52:00
11:52 PM,-2.0,-7.1,79,30.63,10.0,Calm,Calm,-,N/A,,Clear,0,2012-12-01 04:52:00